Overview Statistics Trail Chart Weather Telemetry Raw packets
 

This is the latest recevied weather packets stored in our database for station/object WI0K. If no packets are shown the sender has not sent any weather packets the latest 10 day(s).

<< 84 85 86 87 88 89 90 >>
Time Temp. Humidity Pressure Rain* Wind** Luminosity Snow
1788053405 25.56° C 42% 1018.3 hPa 0 mm - 1 W/m² -
1788053095 26.11° C 42% 1018.4 hPa 0 mm - 2 W/m² -
1788052794 26.11° C 41% 1018.4 hPa 0 mm - 4 W/m² -
1788052493 26.11° C 40% 1018.3 hPa 0 mm - 10 W/m² -
1788052193 26.11° C 39% 1018.2 hPa 0 mm - 15 W/m² -
1788051892 26.11° C 39% 1018.1 hPa 0 mm - 30 W/m² -
1788051591 26.11° C 38% 1018.1 hPa 0 mm - 30 W/m² -
1788051294 26.11° C 38% 1018.1 hPa 0 mm - 30 W/m² -
1788050990 26.11° C 38% 1018.1 hPa 0 mm - 30 W/m² -
1788050689 26.11° C 38% 1018.2 hPa 0 mm - 45 W/m² -
1788050388 26.67° C 37% 1018.2 hPa 0 mm - 53 W/m² -
1788050088 26.67° C 38% 1018.1 hPa 0 mm - 62 W/m² -
1788049787 26.67° C 40% 1017.9 hPa 0 mm - 68 W/m² -
1788049486 26.67° C 37% 1017.8 hPa 0 mm - 101 W/m² -
1788049185 26.67° C 38% 1017.8 hPa 0 mm - 148 W/m² -
1788048884 26.67° C 39% 1017.8 hPa 0 mm - 150 W/m² -
1788048584 26.67° C 37% 1017.6 hPa 0 mm - 144 W/m² -
1788048283 26.67° C 37% 1017.4 hPa 0 mm - 140 W/m² -
1788047982 26.11° C 37% 1017.5 hPa 0 mm - 117 W/m² -
1788047681 26.11° C 39% 1017.5 hPa 0 mm - 109 W/m² -
1788047381 26.67° C 39% 1017.6 hPa 0 mm - 105 W/m² -
1788047080 27.22° C 36% 1017.5 hPa 0 mm - 111 W/m² -
1788046779 27.22° C 34% 1017.5 hPa 0 mm - 122 W/m² -
1788046478 27.78° C 33% 1017.2 hPa 0 mm - 90 W/m² -
1788046178 27.78° C 32% 1017.5 hPa 0 mm - 51 W/m² -

* Rain latest hour (hover to see other rain measurements)
** Current wind speed in m/s (hover to see current wind gust speed)